Regional Weather Roundup
Issued by NWS Sterling, VA

Home | Current Version | Previous Version | Graphics & Text | Print | Product List | Glossary On
Versions: 1 2 3 4 5 6 7 8 9 10 11 12 13 14 15 16 17 18 19 20 21 22 23 24 25 26 27 28 29 30 31 32 33 34 35 36 37 38 39 40 41 42 43 44 45 46 47 48 49
000
ASUS41 KLWX 281110
RWRLWX

REGIONAL WEATHER ROUNDUP
NATIONAL WEATHER SERVICE BALTIMORE MD/WASHINGTON DC
700 AM EDT SAT MAR 28 2015

Note: "FAIR" indicates few or no clouds below 12,000 feet
with no significant weather and/or obstructions to visibility.
 TC=TEMPERATURE CELSIUS

 * =Non NWS site. Station does not report precipitation (e.g. rain,
    snow, etc.), thunder, or fog.

DCZ001-MDZ009-015-VAZ040>042-051-053>054-281200-
WASHINGTON METRO

CITY           SKY/WX    TMP DP  RH WIND       PRES   REMARKS
WASHINGTON NAT MOCLDY    34  16  47 NW14      29.94R WCI  25
DULLES         PTCLDY    28  12  51 NW16G29   29.95R WCI  16
ANDREWS AFB    PTCLDY    31  17  55 NW21      29.90R WCI  19
FT BELVOIR     PTCLDY    31  15  52 NW14G23   29.95R WCI  21
QUANTICO       MOCLDY    33  15  47 N10G25    29.97R WCI  25
COLLEGE PARK*  PTCLDY    32  19  59 W12       29.92R WCI  23
LEESBURG*      CLEAR     28  14  54 NW16G26   29.96R WCI  17
MANASSAS*      CLEAR     28  16  59 NW23G30   29.97R WCI  14
GAITHERSBURG*  CLEAR     27  12  54 NW14G24   29.95R WCI  15

$$

MDZ006>007-011-014-281200-
BALTIMORE METRO

CITY           SKY/WX    TMP DP  RH WIND       PRES   REMARKS
BWI AIRPORT    MOCLDY    32  15  49 W16G25    29.89R WCI  21
MD SCIENCE CTR   N/A     33  16  49 MISG      29.89R
MARTIN STATE   MOCLDY    34  23  64 W15       29.90R WCI  24
ANNAPOLIS      MOCLDY    34  19  54 NW14G21   29.89R WCI  25

$$

MDZ012-015-019>023-281200-
MARYLAND EASTERN SHORE

CITY           SKY/WX    TMP DP  RH WIND       PRES   REMARKS
OCEAN CITY     CLOUDY    36  28  73 NW14      29.81R WCI  27
SALISBURY      CLOUDY    36  24  62 NW16G23   29.84R WCI  26
BAY BRIDGE AP*   N/A     34  21  60 NW18      29.88R WCI  23
CAMBRIDGE*     PTCLDY    36  21  55 NW12G20   29.86R WCI  27
EASTON*        PTCLDY    36  25  64 NW12      29.90R WCI  27

$$

MDZ017>025-281200-
SOUTHERN MARYLAND

CITY           SKY/WX    TMP DP  RH WIND       PRES   REMARKS
PATUXENT RIVER CLOUDY    35  19  52 NW20G30   29.89R WCI  24
ST INIGOES     CLOUDY    36  18  48 NW12G21   29.89R WCI  28
LEONARDTOWN*   CLOUDY    34  19  55 NW14G20   29.91R WCI  24

$$

MDZ003>005-281200-
NORTH CENTRAL MARYLAND

CITY           SKY/WX    TMP DP  RH WIND       PRES   REMARKS
FREDERICK*     CLEAR     28  10  47 W17       29.96R WCI  16
HAGERSTOWN APT CLEAR     24   8  50 NW13      29.94R WCI  12
WESTMINSTER*   FLURRIES  28  12  50 NW12G20   29.88R WCI  18

$$

MDZ501>502-281200-
WESTERN MARYLAND

CITY           SKY/WX    TMP DP  RH WIND       PRES   REMARKS
OAKLAND*       PTCLDY     9   9 100 NW12      29.84R WCI  -6
CUMBERLAND*    CLEAR     23   5  46 NW13G21   30.04R WCI  11

$$

VAZ025>031-281200-
SHENANDOAH VALLEY

CITY           SKY/WX    TMP DP  RH WIND       PRES   REMARKS
WINCHESTER*    CLEAR     27   5  39 NW15      29.97R WCI  15
FRONT ROYAL*   FAIR      27   9  46 N12G18    29.97R WCI  16
LURAY*         CLOUDY    30  14  51 NW7G20    29.96R
NEW MARKET*    CLOUDY    25  11  54 N5        29.96R
STAUNTON*      CLOUDY    27  16  62 N7        29.95R
WAYNESBORO*    CLOUDY    26   6  43 W9G16     29.91R WCI  16

$$

WVZ021-048>050-054>055-281200-
EASTERN WEST VIRGINIA PANHANDLE

CITY           SKY/WX    TMP DP  RH WIND       PRES   REMARKS
MARTINSBURG    CLEAR     25   7  46 NW12G22   29.97R WCI  14
PETERSBURG*    MOCLDY    22   5  47 N8        30.01R WCI  13

$$

VAZ036>039-050-281200-
CENTRAL FOOTHILLS

CITY           SKY/WX    TMP DP  RH WIND       PRES   REMARKS
CHARLOTTESVILL CLOUDY    31  13  47 NW14G20   29.94R WCI  21
CULPEPER*      CLOUDY    30  16  55 N9G16     29.98R WCI  22
ORANGE*        CLOUDY    32  19  59 NW14G20   29.97R WCI  22
GORDONSVILLE*  CLOUDY    32  15  49 CALM      29.95R
WARRENTON*     FAIR      30  20  65 NW16G22   29.97R WCI  19

$$

VAZ055>057-281200-
NORTH AND CENTRAL PIEDMONT

CITY           SKY/WX    TMP DP  RH WIND       PRES   REMARKS
FREDERICKSBRG* PTCLDY    33  20  59 NW8       29.96R WCI  26
STAFFORD*      MOCLDY    31  19  61 NW7       30.00R

$$

NCZ024-NYZ072-PAZ021-071-VAZ022-071-281200-
OTHER REGIONAL OBSERVATIONS

CITY           SKY/WX    TMP DP  RH WIND       PRES   REMARKS
NEW YORK CITY  CLOUDY    35  19  52 NW7       29.80R
PHILADELPHIA   MOCLDY    35  19  52 N16G28    29.83R WCI  25
PITTSBURGH     PTCLDY    15   4  61 NW13      30.04R WCI   1
ROANOKE        MOCLDY    27   9  46 NW14G26   29.99R WCI  16
RICHMOND       MOCLDY    35  18  49 N14       29.93R WCI  26
RALEIGH        PTCLDY    36  27  69 CALM      29.95R

$$

ANZ530>537-281200-
MARINE OBSERVATIONS

STATION/POSITION TIME  TEMP    WIND        PRES
                       AIR SEA DIR/SP/G
                 (UTC) (F)     (DEG/KT/KT) (MB)
THOMAS PT LIGHT  1100                        N/A
BALT KEY BRIDGE  1000   35     290/ 16/ 19 1011.5R
COVE POINT       1000   35     350/ 22/ 24 1011.0R
LEWISETTA        1000   37 45              1011.4R
SOLOMONS ISLAND  1000      43                N/A
PINEY POINT      1006          340/ 22/ 28   N/A

$$



USA.gov is the U.S. government's official web portal to all federal, state and local government web resources and services.